Orbital Elements at Epoch 2459200.5 (2020-Dec-17.0) TDB
Reference: JPL 13 (heliocentric ecliptic J2000)
Element | Value | Uncertainty (1-sigma) | Units |
e | .2174210655103739 | 4.5493e-08 | |
a | 2.282975544433274 | 1.4639e-08 | au |
q | 1.786608569028466 | 1.023e-07 | au |
i | 7.595725177503518 | 5.8028e-06 | deg |
node | 139.5441206836513 | 4.5221e-05 | deg |
peri | 133.0747055156342 | 4.9799e-05 | deg |
M | 216.6787329397342 | 2.6283e-05 | deg |
tp | 2459702.101069731425 (2022-May-02.60106973) | 9.5465e-05 | TDB |
period | 1259.941310924787 3.45 | 1.2118e-05 3.318e-08 | d yr |
n | .2857275945145117 | 2.7482e-09 | deg/d |
Q | 2.779342519838083 | 1.7821e-08 | au |
|
| | Orbit Determination Parameters
Additional Information
|